KH6HHG Weather Reports


Display with metric or nautical units.
time (UTC)temp
F
wind
direction
speed
MPH
gust
MPH
rain 1hr
in
rain 24hr
in
rain mn
in
humidity
%
barometer
mb
20181209203301 67 51 10.0 17.0 0.01 1.89 0.82 93 1019.2
20181209202800 67 65 10.0 15.0 0.01 1.89 0.82 93 1019.2
20181209202302 66 48 13.0 18.0 0.01 1.89 0.82 93 1019.3
20181209201801 66 56 14.0 18.0 0.01 1.89 0.82 93 1019.3
20181209201301 66 58 14.0 22.0 0.01 1.89 0.82 94 1019.2
20181209200800 66 59 9.0 14.0 0.00 1.88 0.81 93 1019.1
20181209200302 66 56 8.0 15.0 0.00 1.88 0.81 94 1019.2
20181209195802 65 54 13.0 16.0 0.01 1.88 0.81 93 1019.3
20181209195301 66 52 10.0 18.0 0.01 1.88 0.81 94 1019.3
20181209194801 66 43 9.0 15.0 0.01 1.88 0.81 94 1019.3
20181209194301 65 46 10.0 14.0 0.01 1.88 0.81 94 1019.3
20181209193801 65 46 13.0 17.0 0.01 1.88 0.81 94 1019.4
20181209193300 65 40 10.0 17.0 0.01 1.88 0.81 94 1019.4
20181209192800 65 52 8.0 12.0 0.01 1.88 0.81 94 1019.4
20181209192302 65 52 9.0 16.0 0.01 1.88 0.81 94 1019.4
20181209191802 65 55 10.0 16.0 0.01 1.88 0.81 94 1019.5
20181209191302 65 54 8.0 10.0 0.02 1.88 0.81 94 1019.4
20181209190801 64 44 9.0 16.0 0.02 1.88 0.81 94 1019.5
20181209190301 64 50 8.0 12.0 0.02 1.88 0.81 94 1019.5
20181209185801 64 35 8.0 9.0 0.02 1.87 0.80 94 1019.5
20181209185300 64 52 8.0 12.0 0.02 1.87 0.80 94 1019.4
20181209184800 64 47 6.0 12.0 0.02 1.87 0.80 94 1019.3
20181209184302 64 57 9.0 14.0 0.03 1.87 0.80 94 1019.4
20181209183801 64 45 10.0 18.0 0.04 1.87 0.80 95 1019.2
20181209183301 64 51 8.0 8.0 0.04 1.87 0.80 94 1019.2
20181209182801 64 44 12.0 16.0 0.04 1.87 0.80 94 1019.1
20181209182301 64 50 12.0 20.0 0.04 1.87 0.80 94 1019.1
20181209181801 64 52 13.0 14.0 0.04 1.87 0.80 94 1019.0
20181209181301 64 48 8.0 13.0 0.04 1.87 0.80 95 1019.1
20181209180801 64 46 13.0 18.0 0.03 1.86 0.79 95 1019.0
20181209180301 64 46 9.0 8.0 0.04 1.86 0.79 95 1018.9
20181209175801 64 49 7.0 8.0 0.03 1.85 0.78 94 1018.9
20181209175300 64 36 9.0 10.0 0.03 1.85 0.78 95 1018.8
20181209174802 64 31 12.0 16.0 0.03 1.85 0.78 94 1018.8
20181209174302 64 43 12.0 21.0 0.02 1.84 0.77 95 1018.7
20181209173801 64 46 8.0 13.0 0.01 1.83 0.76 95 1018.6
20181209173301 64 39 13.0 17.0 0.02 1.83 0.76 95 1018.5
20181209172801 63 40 9.0 14.0 0.02 1.83 0.76 95 1018.5
20181209172302 63 48 10.0 14.0 0.02 1.83 0.76 94 1018.4
20181209171802 63 62 8.0 12.0 0.02 1.83 0.76 95 1018.4
20181209171302 63 53 10.0 15.0 0.03 1.83 0.76 95 1018.3
20181209170801 63 52 9.0 10.0 0.03 1.83 0.76 95 1018.3
20181209170301 63 56 8.0 15.0 0.02 1.82 0.75 95 1018.3
20181209165801 63 49 8.0 10.0 0.03 1.82 0.75 95 1018.3
20181209165300 63 44 5.0 8.0 0.04 1.82 0.75 94 1018.2
20181209164802 63 48 7.0 9.0 0.04 1.82 0.75 94 1018.1
20181209164302 63 63 10.0 12.0 0.05 1.82 0.75 95 1018.1
20181209163802 63 42 7.0 12.0 0.05 1.82 0.75 95 1018.1
20181209163301 63 56 6.0 10.0 0.04 1.81 0.74 95 1018.1
20181209162801 64 59 6.0 9.0 0.05 1.81 0.74 95 1018.0
20181209162301 64 41 10.0 13.0 0.06 1.81 0.74 95 1017.9
20181209161801 64 42 8.0 18.0 0.06 1.81 0.74 95 1017.7
20181209161301 64 47 8.0 10.0 0.05 1.80 0.73 94 1017.7
20181209160802 64 50 10.0 12.0 0.05 1.80 0.73 94 1017.6
20181209160302 64 46 8.0 14.0 0.06 1.80 0.73 94 1017.6
20181209155802 64 51 8.0 12.0 0.06 1.79 0.72 94 1017.6
20181209155301 64 55 8.0 14.0 0.05 1.78 0.71 94 1017.5
20181209154801 64 52 14.0 17.0 0.05 1.78 0.71 94 1017.4
20181209154301 64 60 9.0 17.0 0.05 1.77 0.70 95 1017.3
20181209153801 64 49 10.0 20.0 0.06 1.77 0.70 95 1017.2
20181209153300 64 33 8.0 12.0 0.06 1.77 0.70 95 1017.1
20181209152802 64 50 8.0 13.0 0.05 1.76 0.69 95 1017.0
20181209152301 64 47 10.0 15.0 0.04 1.75 0.68 95 1016.9
20181209151801 64 52 10.0 15.0 0.04 1.75 0.68 95 1016.9
20181209151301 64 56 8.0 18.0 0.05 1.75 0.68 95 1016.9
20181209150802 64 44 8.0 12.0 0.05 1.75 0.68 95 1016.8
20181209150302 64 41 10.0 18.0 0.05 1.74 0.67 95 1016.8
20181209145801 64 50 9.0 17.0 0.05 1.73 0.66 95 1016.8
20181209145300 64 34 10.0 17.0 0.06 1.73 0.66 95 1016.8
20181209144802 64 49 8.0 10.0 0.08 1.73 0.66 95 1016.8
20181209144302 64 35 10.0 14.0 0.09 1.72 0.65 95 1016.8
20181209143802 64 47 5.0 16.0 0.09 1.71 0.64 95 1016.8
20181209143302 64 39 7.0 12.0 0.10 1.71 0.64 95 1016.8
20181209142802 64 28 8.0 16.0 0.10 1.71 0.64 96 1016.8
20181209142301 64 19 8.0 10.0 0.11 1.71 0.64 96 1016.8
20181209141801 64 35 9.0 13.0 0.12 1.71 0.64 95 1016.7
20181209141301 64 50 7.0 12.0 0.13 1.70 0.63 95 1016.6
20181209140803 64 40 10.0 10.0 0.14 1.70 0.63 95 1016.6
20181209140302 64 41 10.0 8.0 0.13 1.69 0.62 95 1016.7
20181209135802 64 54 10.0 15.0 0.12 1.68 0.61 95 1016.7
20181209135302 64 33 9.0 24.0 0.12 1.67 0.60 95 1016.6
20181209134801 64 29 9.0 15.0 0.10 1.65 0.58 95 1016.7
20181209134301 64 34 10.0 16.0 0.10 1.63 0.56 95 1016.8
20181209133801 64 43 8.0 14.0 0.11 1.62 0.55 95 1016.8
20181209133301 64 38 10.0 16.0 0.11 1.61 0.54 95 1016.8
20181209132801 64 35 12.0 18.0 0.11 1.61 0.54 95 1016.8
20181209132302 64 45 8.0 12.0 0.10 1.60 0.53 95 1016.8
20181209131802 64 43 8.0 14.0 0.11 1.59 0.52 95 1016.8
20181209131302 64 49 9.0 18.0 0.10 1.57 0.50 95 1016.8
20181209130802 64 43 9.0 13.0 0.10 1.56 0.49 95 1016.8
20181209130302 64 49 10.0 15.0 0.11 1.56 0.49 95 1016.8
20181209125801 64 28 8.0 14.0 0.13 1.56 0.49 95 1016.8
20181209125301 64 32 9.0 20.0 0.13 1.55 0.48 95 1016.8
20181209124803 64 47 9.0 15.0 0.14 1.55 0.48 95 1016.8
20181209124302 64 58 8.0 12.0 0.13 1.53 0.46 95 1016.8
20181209123802 64 51 10.0 16.0 0.12 1.51 0.44 95 1016.9
20181209123302 64 50 8.0 14.0 0.12 1.50 0.43 95 1016.9
20181209122802 64 40 7.0 10.0 0.12 1.50 0.43 95 1017.0
20181209122302 64 38 7.0 12.0 0.13 1.50 0.43 95 1017.1
20181209121802 64 47 10.0 18.0 0.13 1.48 0.41 95 1017.1
20181209121301 64 31 10.0 14.0 0.13 1.47 0.40 95 1017.1
20181209120802 64 42 12.0 14.0 0.15 1.46 0.39 95 1017.0
20181209120301 64 34 10.0 16.0 0.19 1.45 0.38 95 1017.0
20181209115801 65 45 7.0 10.0 0.20 1.43 0.36 95 1017.0
20181209115303 65 44 8.0 14.0 0.23 1.42 0.35 95 1017.1
20181209114803 65 43 9.0 15.0 0.24 1.41 0.34 95 1017.0
20181209114302 65 27 9.0 12.0 0.24 1.40 0.33 95 1017.0
20181209113802 65 15 10.0 16.0 0.25 1.39 0.32 95 1017.0
20181209113302 64 49 9.0 17.0 0.25 1.38 0.31 95 1017.1
20181209112802 64 42 13.0 12.0 0.25 1.38 0.31 95 1017.1
20181209112305 65 56 13.0 26.0 0.25 1.37 0.30 96 1017.2
20181209111801 65 53 9.0 13.0 0.24 1.35 0.28 96 1017.3
20181209111301 65 21 10.0 16.0 0.24 1.34 0.27 96 1017.1
20181209110803 65 23 7.0 10.0 0.21 1.31 0.24 96 1017.3
20181209110302 65 23 6.0 9.0 0.19 1.26 0.19 96 1017.4
20181209105832 65 25 7.0 12.0 0.00 1.25 0.18 96 1017.3
20181209105332 65 5 5.0 13.0 0.00 1.20 0.13 96 1017.3
20181209104832 65 27 6.0 12.0 0.00 1.17 0.10 96 1017.5
20181209104332 65 50 8.0 10.0 0.00 1.16 0.09 96 1017.6
20181209103832 65 45 8.0 12.0 0.00 1.14 0.07 96 1017.6
20181209103332 65 36 12.0 15.0 0.00 1.14 0.07 96 1017.7
20181209102831 65 25 8.0 20.0 0.00 1.13 0.06 96 1017.7
20181209102331 64 33 7.0 20.0 0.00 1.12 0.05 96 1017.7
20181209101831 64 35 6.0 7.0 0.00 1.11 0.04 96 1017.7
20181209101332 64 28 6.0 8.0 0.00 1.10 0.03 96 1017.8
20181209100832 64 33 9.0 12.0 0.00 1.10 0.03 96 1017.9
20181209100332 64 32 10.0 14.0 0.00 1.07 0.00 96 1017.9
20181209095832 64 33 6.0 5.0 0.14 1.07 1.07 96 1018.0
20181209095331 64 29 7.0 14.0 0.16 1.06 1.06 96 1018.0
20181209094831 64 45 9.0 17.0 0.17 1.05 1.05 96 1018.0
20181209094331 64 35 10.0 13.0 0.16 1.04 1.04 96 1017.9
20181209093831 64 49 7.0 6.0 0.17 1.04 1.04 96 1017.9
20181209093333 64 22 8.0 14.0 0.16 1.03 1.03 96 1017.8
20181209092833 64 32 9.0 10.0 0.16 1.01 1.01 96 1017.8
20181209092332 64 37 8.0 13.0 0.17 1.00 1.00 96 1017.8
20181209091832 64 24 7.0 8.0 0.16 0.99 0.99 96 1017.9
20181209091332 64 25 7.0 12.0 0.16 0.98 0.98 96 1017.9
20181209090832 64 35 7.0 17.0 0.14 0.96 0.96 96 1018.0
20181209090331 64 43 7.0 13.0 0.14 0.95 0.95 96 1018.1
20181209085831 64 35 8.0 14.0 0.12 0.93 0.93 96 1018.2
20181209085331 64 20 10.0 13.0 0.10 0.90 0.90 96 1018.1
20181209084833 64 43 8.0 12.0 0.09 0.88 0.88 96 1018.1
20181209084332 64 33 12.0 15.0 0.09 0.88 0.88 95 1018.1
20181209083832 64 17 7.0 14.0 0.09 0.87 0.87 96 1018.1
20181209083332 64 29 9.0 12.0 0.16 0.87 0.87 95 1018.2
20181209082832 64 42 9.0 12.0 0.14 0.85 0.85 95 1018.2
20181209082331 64 45 10.0 17.0 0.13 0.84 0.84 95 1018.2
20181209081831 65 44 8.0 12.0 0.13 0.83 0.83 95 1018.1
20181209081333 65 36 10.0 12.0 0.13 0.83 0.83 96 1018.1
20181209080833 65 23 10.0 18.0 0.12 0.82 0.82 96 1018.1
20181209080332 64 39 8.0 12.0 0.12 0.81 0.81 95 1018.1
20181209075832 64 46 10.0 15.0 0.13 0.81 0.81 95 1018.1
20181209075332 65 35 9.0 13.0 0.13 0.80 0.80 95 1018.0
20181209074832 65 28 12.0 21.0 0.14 0.79 0.79 95 1017.9
20181209074331 65 52 9.0 20.0 0.17 0.79 0.79 96 1017.9
20181209073833 65 42 12.0 20.0 0.17 0.78 0.78 96 1017.9
20181209073332 65 16 5.0 8.0 0.13 0.73 0.73 96 1017.9
20181209072832 65 22 9.0 12.0 0.11 0.71 0.71 96 1017.9
20181209072331 65 31 7.0 14.0 0.12 0.71 0.71 96 1017.8
20181209071833 65 38 9.0 15.0 0.11 0.70 0.70 95 1017.7
20181209071332 65 22 10.0 20.0 0.11 0.70 0.70 96 1017.8
20181209070832 65 35 12.0 10.0 0.11 0.70 0.70 95 1017.7
20181209070332 65 30 8.0 14.0 0.10 0.69 0.69 95 1017.8
20181209065832 64 31 8.0 9.0 0.09 0.68 0.68 95 1017.7
20181209065331 65 39 9.0 13.0 0.09 0.67 0.67 95 1017.7
20181209064832 65 44 8.0 16.0 0.07 0.65 0.65 95 1017.8
20181209064332 65 36 10.0 15.0 0.04 0.62 0.62 95 1017.8
20181209063831 65 23 10.0 16.0 0.03 0.61 0.61 95 1017.8
20181209063333 65 37 10.0 15.0 0.02 0.60 0.60 95 1017.7
20181209062833 65 25 7.0 12.0 0.02 0.60 0.60 95 1017.6
20181209062332 65 22 10.0 13.0 0.02 0.59 0.59 95 1017.7
20181209061832 65 26 7.0 18.0 0.02 0.59 0.59 95 1017.7
20181209061331 65 24 8.0 13.0 0.02 0.59 0.59 95 1017.7
20181209060833 65 28 3.0 7.0 0.02 0.59 0.59 95 1017.7
20181209060333 65 23 10.0 13.0 0.02 0.59 0.59 95 1017.5
20181209055833 65 25 8.0 15.0 0.04 0.59 0.59 95 1017.6
20181209055333 65 25 8.0 13.0 0.03 0.58 0.58 95 1017.5
20181209054832 65 33 9.0 16.0 0.03 0.58 0.58 95 1017.5
20181209054332 65 40 9.0 15.0 0.03 0.58 0.58 95 1017.5
20181209053832 65 13 8.0 13.0 0.03 0.58 0.58 95 1017.4
20181209053331 65 38 10.0 21.0 0.04 0.58 0.58 95 1017.3
20181209052833 65 34 8.0 20.0 0.04 0.58 0.58 95 1017.2
20181209052333 65 30 9.0 14.0 0.05 0.58 0.58 95 1017.2
20181209051833 65 26 10.0 16.0 0.04 0.57 0.57 95 1017.0
20181209051332 65 23 10.0 20.0 0.04 0.57 0.57 95 1016.9
20181209050832 65 16 14.0 17.0 0.04 0.57 0.57 95 1016.9
20181209050332 65 30 13.0 17.0 0.04 0.57 0.57 95 1016.8
20181209045832 65 42 7.0 9.0 0.04 0.55 0.55 95 1016.8
20181209045333 65 14 9.0 13.0 0.05 0.55 0.55 95 1016.7
20181209044833 65 36 13.0 17.0 0.05 0.55 0.55 95 1016.6
20181209044333 66 37 7.0 13.0 0.05 0.55 0.55 95 1016.7
20181209043832 66 15 8.0 12.0 0.08 0.55 0.55 95 1016.5
20181209043332 66 49 8.0 15.0 0.07 0.54 0.54 95 1016.6
20181209042832 66 13 9.0 13.0 0.07 0.54 0.54 95 1016.5
20181209042331 66 21 9.0 26.0 0.06 0.53 0.53 94 1016.4
20181209041833 66 19 8.0 20.0 0.06 0.53 0.53 94 1016.5
20181209041333 66 10 12.0 17.0 0.06 0.53 0.53 94 1016.4
20181209040832 66 39 6.0 12.0 0.06 0.53 0.53 94 1016.3
20181209040332 66 48 6.0 12.0 0.07 0.53 0.53 94 1016.3
20181209035832 66 56 8.0 14.0 0.05 0.51 0.51 94 1016.4
20181209035332 66 35 9.0 16.0 0.04 0.50 0.50 94 1016.3
20181209034831 66 46 15.0 22.0 0.04 0.50 0.50 93 1016.3
20181209034333 66 48 8.0 12.0 0.04 0.50 0.50 93 1016.3
20181209033833 67 28 8.0 9.0 0.01 0.47 0.47 93 1016.3
20181209033333 67 49 8.0 15.0 0.01 0.47 0.47 93 1016.2
20181209032832 67 41 10.0 15.0 0.01 0.47 0.47 93 1016.3
20181209032332 67 54 7.0 16.0 0.01 0.47 0.47 93 1016.2
20181209031833 67 48 9.0 15.0 0.01 0.47 0.47 93 1016.2
20181209031333 67 41 8.0 14.0 0.02 0.47 0.47 93 1016.1
20181209030833 67 40 9.0 12.0 0.02 0.47 0.47 93 1016.0
20181209030332 67 30 7.0 9.0 0.02 0.46 0.46 93 1016.0
20181209025832 67 45 13.0 15.0 0.02 0.46 0.46 92 1016.0
20181209025332 67 45 8.0 10.0 0.03 0.46 0.46 93 1015.9
20181209024832 67 54 8.0 13.0 0.03 0.46 0.46 93 1015.9
20181209024333 67 42 9.0 17.0 0.03 0.46 0.46 93 1015.9
20181209023833 67 46 9.0 15.0 0.07 0.46 0.46 93 1015.8
20181209023333 67 58 10.0 17.0 0.12 0.46 0.46 93 1015.8
20181209022833 67 51 9.0 12.0 0.12 0.46 0.46 92 1015.8
20181209022332 67 49 10.0 16.0 0.16 0.46 0.46 92 1015.7
20181209021832 67 47 8.0 9.0 0.17 0.46 0.46 92 1015.7
20181209021332 68 43 10.0 14.0 0.16 0.45 0.45 92 1015.7
20181209020834 68 43 9.0 13.0 0.16 0.45 0.45 92 1015.7
20181209020333 68 59 9.0 15.0 0.15 0.44 0.44 93 1015.6
20181209015833 68 37 8.0 12.0 0.15 0.44 0.44 92 1015.6
20181209015333 68 29 8.0 13.0 0.14 0.43 0.43 92 1015.7
20181209014833 68 44 8.0 12.0 0.14 0.43 0.43 91 1015.7
20181209014332 68 42 10.0 14.0 0.14 0.43 0.43 89 1015.7
20181209013832 69 55 13.0 20.0 0.11 0.40 0.40 89 1015.6
20181209013334 70 43 9.0 18.0 0.05 0.34 0.34 89 1015.6
20181209012833 70 35 9.0 12.0 0.05 0.34 0.34 87 1015.5
20181209012333 71 33 10.0 18.0 0.05 0.33 0.33 85 1015.5
20181209011833 72 35 10.0 16.0 0.02 0.29 0.29 85 1015.5
20181209011332 72 33 10.0 16.0 0.02 0.29 0.29 86 1015.4
20181209010832 71 46 10.0 14.0 0.05 0.29 0.29 86 1015.3
20181209010332 71 51 14.0 23.0 0.05 0.29 0.29 86 1015.3
20181209005833 71 61 12.0 16.0 0.05 0.29 0.29 87 1015.3
20181209005333 70 56 10.0 12.0 0.05 0.29 0.29 88 1015.3
20181209004833 70 40 10.0 15.0 0.06 0.29 0.29 90 1015.3
20181209004333 69 44 9.0 14.0 0.06 0.29 0.29 91 1015.4
20181209003833 69 37 10.0 13.0 0.06 0.29 0.29 91 1015.4
20181209003333 68 33 9.0 21.0 0.06 0.29 0.29 90 1015.4
20181209002833 69 31 9.0 13.0 0.06 0.29 0.29 90 1015.4
20181209002332 69 52 10.0 16.0 0.05 0.28 0.28 90 1015.5
20181209001832 69 33 9.0 14.0 0.05 0.28 0.28 90 1015.5
20181209001334 70 45 8.0 14.0 0.04 0.27 0.27 88 1015.5
20181209000833 71 46 8.0 17.0 0.02 0.25 0.25 88 1015.6
20181209000333 71 45 10.0 12.0 0.01 0.24 0.24 89 1015.4
20181208235833 71 38 12.0 20.0 0.01 0.24 0.24 89 1015.4
20181208235332 71 52 12.0 20.0 0.02 0.24 0.24 88 1015.5
20181208234832 71 39 16.0 18.0 0.05 0.23 0.23 88 1015.4
20181208234334 70 51 8.0 12.0 0.10 0.23 0.23 88 1015.4
20181208233833 70 42 12.0 18.0 0.14 0.23 0.23 87 1015.5
20181208233333 70 54 10.0 13.0 0.14 0.23 0.23 88 1015.5
20181208232833 70 47 12.0 22.0 0.14 0.23 0.23 89 1015.6
20181208232333 70 45 10.0 15.0 0.14 0.23 0.23 90 1015.5
20181208231833 69 45 10.0 18.0 0.18 0.23 0.23 93 1015.5
20181208231332 68 64 12.0 15.0 0.22 0.23 0.23 92 1015.6
20181208230832 68 65 10.0 14.0 0.22 0.23 0.23 91 1015.7
20181208230334 68 44 10.0 21.0 0.22 0.23 0.23 92 1015.8
20181208225833 68 48 7.0 9.0 0.22 0.23 0.23 92 1015.8
20181208225333 68 58 15.0 16.0 0.21 0.22 0.22 90 1015.9
20181208224833 69 49 13.0 18.0 0.18 0.19 0.19 89 1015.9
20181208224333 70 44 12.0 18.0 0.13 0.14 0.14 89 1015.9
20181208223832 70 39 9.0 15.0 0.08 0.09 0.09 91 1016.0
20181208223332 70 49 12.0 17.0 0.08 0.09 0.09 90 1016.0
20181208222832 70 56 9.0 12.0 0.08 0.09 0.09 90 1016.1
20181208222334 70 57 12.0 21.0 0.08 0.09 0.09 88 1016.2
20181208221833 72 57 13.0 18.0 0.06 0.07 0.07 85 1016.3
20181208221333 73 28 8.0 14.0 0.00 0.01 0.01 83 1016.2
20181208220834 74 55 12.0 15.0 0.00 0.01 0.01 81 1016.2
20181208220334 73 53 10.0 21.0 0.01 0.01 0.01 79 1016.3
20181208215833 73 67 9.0 18.0 0.01 0.01 0.01 80 1016.2
20181208215333 72 57 10.0 15.0 0.01 0.01 0.01 80 1016.4
20181208214833 72 47 13.0 17.0 0.01 0.01 0.01 81 1016.5
20181208214333 71 74 13.0 18.0 0.01 0.01 0.01 83 1016.5
20181208213832 70 80 12.0 13.0 0.01 0.01 0.01 85 1016.5
20181208213332 70 60 10.0 22.0 0.01 0.01 0.01 87 1016.5
20181208212832 71 52 12.0 18.0 0.01 0.01 0.01 86 1016.6
20181208212334 70 36 9.0 16.0 0.01 0.01 0.01 87 1016.5
20181208211833 70 51 13.0 22.0 0.01 0.01 0.01 88 1016.6
20181208211333 69 51 10.0 20.0 0.01 0.01 0.01 88 1016.7
20181208210833 70 58 12.0 16.0 0.01 0.01 0.01 87 1016.8
20181208210333 70 46 9.0 16.0 0.00 0.00 0.00 87 1016.9
20181208205833 70 58 12.0 24.0 0.00 0.00 0.00 86 1016.8
20181208205333 70 59 12.0 17.0 0.00 0.00 0.00 88 1016.9
20181208204833 69 60 9.0 13.0 0.00 0.00 0.00 87 1017.0
20181208204333 69 59 10.0 17.0 0.00 0.00 0.00 87 1017.1
20181208203833 70 59 8.0 15.0 0.00 0.00 0.00 86 1017.2